Olathe, KS

3:22 PM CDT on May 28, 2017 (GMT -0500)
Johnson County Executive

Weather History for KOJC - October, 2012

Change the Weather History Date:

Monday, October 22, 2012

  Actual Average Record
Temperature  
Mean Temperature 73 °F 55 °F  
Max Temperature 78 °F 65 °F 84 °F (1963)
Min Temperature 67 °F 45 °F 28 °F (1982)
Degree Days  
Heating Degree Days 0 11  
Month to date heating degree days 211 165  
Since 1 July heating degree days 249 214  
Cooling Degree Days 8 0  
Month to date cooling degree days 12 27  
Year to date cooling degree days 1809 1348  
Growing Degree Days 22 (Base 50)    
Moisture  
Dew Point 66 °F    
Average Humidity 80    
Maximum Humidity 93    
Minimum Humidity 67    
Precipitation  
Precipitation 0.00 in 0.09 in 1.26 in (2008)
Month to date precipitation 1.07 2.60  
Year to date precipitation 22.79 35.07  
Sea Level Pressure  
Sea Level Pressure 29.77 in    
Wind  
Wind Speed 12 mph (South)    
Max Wind Speed 21 mph    
Max Gust Speed 29 mph    
Visibility 10 miles    
Events      
T = Trace of Precipitation, MM = Missing Value Source: NWS Daily Summary

Daily Weather History Graph

Daily Weather History Graph

Search for Another Location

Airport or City:

Trip Planner

Search our weather history database for the weather conditions in past years. The results will help you decide how hot, cold, wet, or windy it might be!

Date:

Astronomy

Oct. 22, 2012 Rise Set
Actual Time 7:35 AM CDT 6:30 PM CDT
Civil Twilight 7:08 AM CDT 6:57 PM CDT
Nautical Twilight 6:37 AM CDT 7:28 PM CDT
Astronomical Twilight 6:06 AM CDT 7:59 PM CDT
Moon 2:35 PM CDT (10/22) 12:27 AM CDT (10/22)
Length of Visible Light 11h 48m
Length of Day
10h 54m
First Quarter, 56% of the Moon is Illuminated
Oct 22
First Quarter
Oct 29
Full
Nov 6
Last Quarter
Nov 13
New
Nov 20
First Quarter

Hourly Weather History & Observations

Time (CDT) Temp. Dew Point Humidity Pressure Visibility Wind Dir Wind Speed Gust Speed Precip Events Conditions
12:53 AM 68.0 °F 64.0 °F 87% 29.77 in 8.0 mi SSE 9.2 mph - N/A   Clear
1:53 AM 68.0 °F 64.0 °F 87% 29.74 in 8.0 mi SSE 10.4 mph - N/A   Clear
2:53 AM 66.9 °F 64.0 °F 90% 29.72 in 8.0 mi South 13.8 mph - N/A   Clear
3:53 AM 70.0 °F 64.9 °F 84% 29.71 in 10.0 mi South 12.7 mph 20.7 mph N/A   Clear
4:53 AM 70.0 °F 64.9 °F 84% 29.71 in 10.0 mi South 11.5 mph 19.6 mph N/A   Clear
5:53 AM 70.0 °F 64.9 °F 84% 29.73 in 10.0 mi South 11.5 mph - N/A   Clear
6:53 AM 70.0 °F 64.9 °F 84% 29.74 in 10.0 mi South 11.5 mph 19.6 mph N/A   Clear
7:33 AM 69.8 °F 64.4 °F 83% 29.77 in 10.0 mi South 13.8 mph 19.6 mph N/A   Scattered Clouds
7:53 AM 70.0 °F 64.9 °F 84% 29.75 in 10.0 mi South 13.8 mph 21.9 mph N/A   Scattered Clouds
8:53 AM 71.1 °F 66.0 °F 84% 29.77 in 10.0 mi South 16.1 mph 21.9 mph N/A   Scattered Clouds
9:53 AM 73.0 °F 66.9 °F 81% 29.78 in 10.0 mi SSW 17.3 mph 25.3 mph N/A   Mostly Cloudy
10:53 AM 75.0 °F 66.9 °F 76% 29.79 in 10.0 mi SSW 12.7 mph 25.3 mph N/A   Mostly Cloudy
11:22 AM 75.2 °F 66.2 °F 73% 29.81 in 10.0 mi SSW 11.5 mph 23.0 mph N/A   Scattered Clouds
11:53 AM 75.9 °F 66.0 °F 71% 29.79 in 10.0 mi SW 13.8 mph 23.0 mph N/A   Scattered Clouds
12:01 PM 75.2 °F 66.2 °F 73% 29.81 in 10.0 mi SSW 12.7 mph 21.9 mph N/A   Mostly Cloudy
12:27 PM 77.0 °F 66.2 °F 69% 29.81 in 10.0 mi SW 15.0 mph 24.2 mph N/A   Mostly Cloudy
12:38 PM 77.0 °F 66.2 °F 69% 29.81 in 10.0 mi SSW 12.7 mph 21.9 mph N/A   Mostly Cloudy
12:53 PM 78.1 °F 66.0 °F 66% 29.78 in 10.0 mi SSW 16.1 mph 23.0 mph N/A   Mostly Cloudy
1:53 PM 77.0 °F 66.9 °F 71% 29.76 in 10.0 mi SSW 12.7 mph 19.6 mph N/A   Overcast
2:53 PM 77.0 °F 66.9 °F 71% 29.76 in 10.0 mi SSW 17.3 mph 24.2 mph N/A   Overcast
3:53 PM 75.0 °F 66.0 °F 73% 29.78 in 10.0 mi South 12.7 mph 21.9 mph N/A   Overcast
4:53 PM 73.9 °F 66.0 °F 76% 29.79 in 10.0 mi South 10.4 mph - N/A   Scattered Clouds
5:53 PM 73.0 °F 66.9 °F 81% 29.78 in 10.0 mi South 6.9 mph - N/A   Clear
6:53 PM 72.0 °F 66.0 °F 81% 29.79 in 10.0 mi South 8.1 mph - N/A   Scattered Clouds
7:53 PM 73.9 °F 66.0 °F 76% 29.80 in 10.0 mi South 10.4 mph - N/A   Partly Cloudy
8:53 PM 71.1 °F 64.9 °F 81% 29.80 in 10.0 mi South 6.9 mph - N/A   Scattered Clouds
9:53 PM 71.1 °F 64.0 °F 78% 29.81 in 10.0 mi SSW 9.2 mph - N/A   Clear
10:53 PM 69.1 °F 64.0 °F 84% 29.83 in 10.0 mi South 10.4 mph - N/A   Clear